Regional Weather Roundup
Issued by NWS

Home | Current Version | Previous Version | Graphics & Text | Print | Product List | Glossary On
Versions: 1 2 3 4 5 6 7 8 9 10 11 12 13 14 15 16 17 18 19 20 21 22 23 24 25 26 27 28 29 30 31 32 33 34 35 36 37 38 39 40 41 42 43 44 45 46 47 48 49 50
000
ASUS43 KMKX 290421
RWRWI

WISCONSIN REGIONAL WEATHER ROUNDUP
NATIONAL WEATHER SERVICE MILWAUKEE/SULLIVAN WI
1100 PM CDT THU AUG 28 2014

NOTE: "FAIR" INDICATES FEW OR NO CLOUDS BELOW 12,000 FEET WITH NO
SIGNIFICANT WEATHER AND/OR OBSTRUCTIONS TO VISIBILITY.

WIZ001-002-006>008-014>016-023>028-290500-
NORTHWEST WISCONSIN

CITY           SKY/WX    TMP DP  RH WIND       PRES   REMARKS
SUPERIOR ARPT  CLOUDY    61  60  96 NE3       29.95F
ASHLAND        CLOUDY    58  56  93 CALM      29.99F
HAYWARD        CLOUDY    65  61  87 SE3       29.98F
SIREN          CLOUDY    65  61  86 SE6       29.96S
RICE LAKE      CLOUDY    64  61  90 SE10      29.99S
LADYSMITH      LGT RAIN  65  63  93 SE6       30.02S
EAU CLAIRE     CLOUDY    65  64  97 SE12      29.97S
MENOMONIE      CLOUDY    65  64  96 SE9       29.97F
NEW RICHMOND   CLOUDY    65  64  93 SE10      29.95S
OSCEOLA        CLOUDY    66  65  97 SE9       29.97S
$$

WIZ003>005-009-010-017-018-290500-
NORTH CENTRAL WISCONSIN

CITY           SKY/WX    TMP DP  RH WIND       PRES   REMARKS
WOODRUFF       CLOUDY    64  59  85 S8        30.04S
RHINELANDER    CLOUDY    61  58  90 S9        30.06S
EAGLE RIVER    CLOUDY    62  57  82 S6        30.04F
LAND O LAKES   CLOUDY    63  59  87 S5        30.05F
PHILLIPS       CLOUDY    63  61  92 SE5       30.02S
TOMAHAWK       CLOUDY    61  58  91 SE5       30.05S
MEDFORD        DRIZZLE   60  59  96 SE8       30.03S
MERRILL        RAIN      62  60  94 S5        30.04S
$$

WIZ029-030-035-036-043>047-290500-
CENTRAL WISCONSIN

CITY           SKY/WX    TMP DP  RH WIND       PRES   REMARKS
WAUSAU         CLOUDY    61  57  87 SE7       30.02F
MOSINEE        RAIN      59  55  88 SE5       30.04F
MARSHFIELD     RAIN      60  58  92 S10       30.04R FOG
STEVENS POINT  LGT RAIN  60  53  79 SE8       30.04F
WAUPACA        CLOUDY    64  61  90 CALM      30.05R
WAUTOMA        LGT RAIN  62  56  81 E5        30.04S
WISC RAPIDS    LGT RAIN  60  57  89 E6        30.04S
CAMP DOUGLAS   CLOUDY    61  61 100 E7        30.01R
$$

WIZ011>013-019>022-031-037>040-048>050-290500-
NORTHEAST WISCONSIN

CITY           SKY/WX    TMP DP  RH WIND       PRES   REMARKS
ANTIGO         LGT RAIN  59  58  95 SE6       30.06F
STURGEON BAY   CLOUDY    61  55  82 SE6       30.07F
GREEN BAY      CLOUDY    63  57  81 SE5       30.05F
MANITOWOC      CLOUDY    64  59  83 E8        30.06F
APPLETON       CLOUDY    63  54  72 SE6       30.05F
CLINTONVILLE   CLOUDY    61  57  88 E3        30.05S
OSHKOSH        CLOUDY    65  54  67 SE7       30.03F
$$

WIZ032>034-041-042-053>061-290500-
SOUTHWEST WISCONSIN

CITY           SKY/WX    TMP DP  RH WIND       PRES   REMARKS
LA CROSSE      CLOUDY    67  64  90 SE7       29.96S
SPARTA         CLOUDY    63  60  91 E7        29.99F
VIROQUA        CLOUDY    64  64 100 SE8       29.98F
BOSCOBEL       CLOUDY    70  59  68 SE5       29.99R
PRAIRIE DU CHI CLOUDY    69  62  77 SE6       29.97S
PLATTEVILLE    FAIR      65  61  87 SE10      30.01S
$$

WIZ056-057-062-063-064-067-068-290500-
SOUTH CENTRAL WISCONSIN

CITY           SKY/WX    TMP DP  RH WIND       PRES   REMARKS
BARABOO/DELLS  DRIZZLE   63  53  69 SE6       30.02R
LONE ROCK      CLOUDY    71  56  58 SE7       30.01R
WATERTOWN      CLOUDY    64  58  81 E5        30.04R
MADISON        CLOUDY    65  57  75 SE10      30.02S
MIDDLETON      CLOUDY    67  56  67 SE6       30.03R
MONROE         CLOUDY    63  59  88 E6        30.03R
JANESVILLE     CLOUDY    64  61  88 E6        30.02S
$$

WIZ051-052-058>065-066-070>072-290500-
SOUTHEAST WISCONSIN

CITY           SKY/WX    TMP DP  RH WIND       PRES   REMARKS
MILWAUKEE      CLOUDY    67  59  75 E8        30.06S
WAUKESHA       CLOUDY    63  55  77 E9        30.06S
MILWAUKEE/TIMM CLOUDY    64  55  72 E5        30.07R
RACINE         CLOUDY    69  60  73 E10       30.07S
BURLINGTON     CLOUDY    62  59  90 CALM      30.05S
KENOSHA        CLOUDY    68  62  81 E9        30.05S
FOND DU LAC    CLOUDY    63  55  75 SE8       30.04F
SHEBOYGAN      CLOUDY    63  57  81 E5        30.06F
WEST BEND      CLOUDY    61  55  82 SE3       30.06S
JUNEAU         CLOUDY    63  56  80 E8        30.05S
$$

LSZ147-162-290500-
LAKE SUPERIOR

STATION/POSITION TIME  TEMP    WIND        PRES    WAVE
                       AIR SEA DIR/SP/G            HT/PER
                 (UTC) (F)     (DEG/KT/KT) (MB)    (FT/S)
W MID LAKE BUOY  0350   60 58  130/ 10/ 12 1014.8F   1
DEVILS ISLAND    0400   62     300/  5/  5 1015.1F
PORT WING        0300   63     130/  4/  7 1014.9F
SAXON HARBOR     0300   62        CALM     1015.6F
$$

LMZ867-665-643>646-290500-
LAKE MICHIGAN

STATION/POSITION TIME  TEMP    WIND        PRES    WAVE
                       AIR SEA DIR/SP/G            HT/PER
                 (UTC) (F)     (DEG/KT/KT) (MB)    (FT/S)
N MID LAKE BUOY  0350   65 66  120/ 10/ 12 1018.6F   0
NORTHPORT PIER   0300   65     130/  9/ 11 1018.6F
SISTER BAY       0311   62     110/  7/ 10   N/A
ALGOMA LAKESHORE 0323          160/ 11/ 12   N/A
KEWAUNEE LAKESHO 0400   65     120/  6/ 10 1017.1F
SHEBOYGAN LAKESH 0400   66 69   90/ 13/ 13 1017.9F
ATWATER BUOY     0400   69     130/ 12/ 14 1018.8R
MILWAUKEE LAKESH 0400   68     120/ 10/ 12   N/A
S MID LAKE BUOY  0350   69 69  110/ 16/ 17 1017.6F   2/ 3
KENOSHA   LAKESH 0400   70     120/ 14/ 17 1016.9S
$$

TC  - TEMPERATURE IN CELSIUS
VSB - VISIBILITY IN STATUTE MILES
WCI - WIND CHILL INDEX
HX  - HEAT INDEX



USA.gov is the U.S. government's official web portal to all federal, state and local government web resources and services.